This is the latest recevied weather packets stored in our database for station/object W8UFO-13. If no packets are shown the sender has not sent any weather packets the latest 10 day(s).
| Time | Temp. | Humidity | Pressure | Rain* | Wind** | Luminosity | Snow |
|---|---|---|---|---|---|---|---|
| 1777900456 | 14.44° C | 70% | 1019.6 hPa | 0 mm | - | - | - |
| 1777900156 | 13.89° C | 72% | 1019.5 hPa | 0 mm | - | - | - |
| 1777899857 | 13.89° C | 72% | 1019.4 hPa | 0 mm | - | - | - |
| 1777899556 | 13.33° C | 72% | 1019.5 hPa | 0 mm | - | - | - |
| 1777899256 | 13.33° C | 73% | 1019.7 hPa | 0 mm | - | - | - |
| 1777898957 | 12.78° C | 74% | 1019.5 hPa | 0 mm | - | - | - |
| 1777898656 | 12.22° C | 76% | 1019.3 hPa | 0 mm | - | - | - |
| 1777898356 | 11.67° C | 79% | 1019.3 hPa | 0 mm | - | - | - |
| 1777898056 | 11.11° C | 80% | 1019.3 hPa | 0 mm | - | - | - |
| 1777897757 | 10.56° C | 83% | 1019.1 hPa | 0 mm | - | - | - |
| 1777897456 | 10° C | 87% | 1018.9 hPa | 0 mm | - | - | - |
| 1777897156 | 9.44° C | 88% | 1018.9 hPa | 0 mm | - | - | - |
| 1777896856 | 9.44° C | 88% | 1018.9 hPa | 0 mm | - | - | - |
| 1777896556 | 8.89° C | 89% | 1018.7 hPa | 0 mm | - | - | - |
| 1777896256 | 8.89° C | 90% | 1018.6 hPa | 0 mm | - | - | - |
| 1777895956 | 8.33° C | 90% | 1018.7 hPa | 0 mm | - | - | - |
| 1777895656 | 8.33° C | 91% | 1018.6 hPa | 0 mm | - | - | - |
| 1777895356 | 7.78° C | 92% | 1018.5 hPa | 0 mm | - | - | - |
| 1777895056 | 7.78° C | 93% | 1018.6 hPa | 0 mm | - | - | - |
| 1777894756 | 7.22° C | 93% | 1018.5 hPa | 0 mm | - | - | - |
| 1777894456 | 7.22° C | 93% | 1018.4 hPa | 0 mm | - | - | - |
| 1777894156 | 7.22° C | 93% | 1018.3 hPa | 0 mm | - | - | - |
| 1777893856 | 6.67° C | 93% | 1018.2 hPa | 0 mm | - | - | - |
| 1777893556 | 6.67° C | 93% | 1018.1 hPa | 0 mm | - | - | - |
| 1777893256 | 6.67° C | 93% | 1018.1 hPa | 0 mm | - | - | - |
* Rain latest hour (hover to see other rain measurements)
** Current wind speed in m/s (hover to see current wind gust speed)